Wetterdaten: Dienstag, 12.04.2016
Datum Zeit Auen-Temp. Temp gefhlt Luftfeuchte Luftdruck Regen Wind Richtung Richtung Sonnenschein Taupunkt Windben
12.04.2016 00:00 4,8 C 4,5 C 83 % 1011,0 hPa 0,0 mm 0,0 km/h (0 Bft) NO 45 0 min 2,1 C 0,0 km/h (0 Bft)
12.04.2016 00:05 4,9 C 4,6 C 83 % 1011,0 hPa 0,0 mm 0,0 km/h (0 Bft) O-SO 112 0 min 2,2 C 0,0 km/h (0 Bft)
12.04.2016 00:10 5,2 C 4,9 C 84 % 1011,0 hPa 0,0 mm 0,0 km/h (0 Bft) SO 135 0 min 2,6 C 0,0 km/h (0 Bft)
12.04.2016 00:15 5,2 C 4,6 C 84 % 1011,0 hPa 0,0 mm 0,0 km/h (0 Bft) NW 315 0 min 2,7 C 0,0 km/h (0 Bft)
12.04.2016 00:20 5,0 C 4,6 C 84 % 1011,0 hPa 0,0 mm 0,0 km/h (0 Bft) W-SW 247 0 min 2,5 C 0,0 km/h (0 Bft)
12.04.2016 00:25 5,2 C 4,6 C 84 % 1011,0 hPa 0,0 mm 0,0 km/h (0 Bft) NW 315 0 min 2,7 C 0,0 km/h (0 Bft)
12.04.2016 00:30 5,0 C 4,4 C 84 % 1011,1 hPa 0,0 mm 0,0 km/h (0 Bft) NW 315 0 min 2,5 C 0,0 km/h (0 Bft)
12.04.2016 00:35 4,7 C 4,2 C 84 % 1011,1 hPa 0,0 mm 0,0 km/h (0 Bft) N-NO 22 0 min 2,1 C 0,0 km/h (0 Bft)
12.04.2016 00:40 4,5 C 4,0 C 84 % 1011,1 hPa 0,0 mm 0,0 km/h (0 Bft) NO 45 0 min 2,0 C 0,0 km/h (0 Bft)
12.04.2016 00:45 4,4 C 4,0 C 84 % 1011,1 hPa 0,0 mm 0,0 km/h (0 Bft) O-NO 67 0 min 1,9 C 0,0 km/h (0 Bft)
12.04.2016 00:50 4,7 C 4,3 C 85 % 1010,9 hPa 0,0 mm 0,0 km/h (0 Bft) NW 315 0 min 2,3 C 0,0 km/h (0 Bft)
12.04.2016 00:55 4,8 C 4,3 C 85 % 1010,9 hPa 0,0 mm 0,0 km/h (0 Bft) O 90 0 min 2,4 C 0,0 km/h (0 Bft)
12.04.2016 01:00 4,5 C 4,0 C 85 % 1010,9 hPa 0,0 mm 0,0 km/h (0 Bft) W 270 0 min 2,2 C 0,0 km/h (0 Bft)
12.04.2016 01:05 4,4 C 4,0 C 85 % 1010,9 hPa 0,0 mm 0,0 km/h (0 Bft) N 360 0 min 2,2 C 0,0 km/h (0 Bft)
12.04.2016 01:10 4,4 C 4,0 C 85 % 1011,0 hPa 0,0 mm 0,0 km/h (0 Bft) N-NW 337 0 min 2,1 C 0,0 km/h (0 Bft)
12.04.2016 01:15 4,4 C 4,0 C 85 % 1011,0 hPa 0,0 mm 0,0 km/h (0 Bft) S-SO 157 0 min 2,2 C 0,0 km/h (0 Bft)
12.04.2016 01:20 4,6 C 4,1 C 85 % 1011,0 hPa 0,0 mm 0,0 km/h (0 Bft) SW 225 0 min 2,3 C 0,0 km/h (0 Bft)
12.04.2016 01:23 4,7 C 4,2 C 85 % 1011,0 hPa 0,0 mm 0,0 km/h (0 Bft) O-NO 67 0 min 2,4 C 0,0 km/h (0 Bft)
12.04.2016 01:25 4,7 C 4,2 C 85 % 1011,0 hPa 0,0 mm 0,0 km/h (0 Bft) O-NO 67 0 min 2,4 C 0,0 km/h (0 Bft)
12.04.2016 01:30 4,6 C 4,1 C 85 % 1010,8 hPa 0,0 mm 0,0 km/h (0 Bft) O-NO 67 0 min 2,3 C 0,0 km/h (0 Bft)
12.04.2016 01:35 4,4 C 3,9 C 85 % 1010,8 hPa 0,0 mm 0,0 km/h (0 Bft) S-SW 202 0 min 2,2 C 0,0 km/h (0 Bft)
12.04.2016 01:40 4,5 C 3,9 C 85 % 1010,8 hPa 0,0 mm 0,0 km/h (0 Bft) W 270 0 min 2,2 C 0,0 km/h (0 Bft)
12.04.2016 01:45 4,3 C 3,7 C 85 % 1010,8 hPa 0,0 mm 0,0 km/h (0 Bft) NW 315 0 min 2,0 C 0,0 km/h (0 Bft)
12.04.2016 01:50 4,1 C 3,5 C 85 % 1010,8 hPa 0,0 mm 0,0 km/h (0 Bft) W-NW 292 0 min 1,8 C 0,0 km/h (0 Bft)
12.04.2016 01:55 3,9 C 3,3 C 86 % 1010,8 hPa 0,0 mm 0,0 km/h (0 Bft) W-NW 292 0 min 1,7 C 0,0 km/h (0 Bft)
12.04.2016 02:00 4,0 C 3,4 C 86 % 1010,8 hPa 0,0 mm 0,0 km/h (0 Bft) W-SW 247 0 min 1,7 C 0,0 km/h (0 Bft)
12.04.2016 02:05 4,2 C 3,6 C 86 % 1010,8 hPa 0,0 mm 0,0 km/h (0 Bft) NO 45 0 min 2,0 C 0,0 km/h (0 Bft)
12.04.2016 02:10 4,1 C 3,6 C 86 % 1010,6 hPa 0,0 mm 0,0 km/h (0 Bft) NW 315 0 min 1,9 C 0,0 km/h (0 Bft)
12.04.2016 02:15 3,8 C 3,3 C 86 % 1010,6 hPa 0,0 mm 0,0 km/h (0 Bft) N-NO 22 0 min 1,6 C 0,0 km/h (0 Bft)
12.04.2016 02:20 3,8 C 3,3 C 86 % 1010,6 hPa 0,0 mm 0,0 km/h (0 Bft) O-NO 67 0 min 1,7 C 0,0 km/h (0 Bft)
12.04.2016 02:25 4,0 C 3,6 C 86 % 1010,6 hPa 0,0 mm 0,0 km/h (0 Bft) N-NO 22 0 min 1,9 C 0,0 km/h (0 Bft)
12.04.2016 02:30 4,0 C 3,5 C 86 % 1010,2 hPa 0,0 mm 0,0 km/h (0 Bft) W 270 0 min 1,9 C 0,0 km/h (0 Bft)
12.04.2016 02:35 3,8 C 3,3 C 86 % 1010,2 hPa 0,0 mm 0,0 km/h (0 Bft) W 270 0 min 1,7 C 0,0 km/h (0 Bft)
12.04.2016 02:40 3,8 C 3,3 C 86 % 1010,2 hPa 0,0 mm 0,0 km/h (0 Bft) W 270 0 min 1,7 C 0,0 km/h (0 Bft)
12.04.2016 02:45 3,8 C 3,2 C 86 % 1010,2 hPa 0,0 mm 0,0 km/h (0 Bft) W 270 0 min 1,7 C 0,0 km/h (0 Bft)
12.04.2016 02:50 3,7 C 3,3 C 87 % 1010,2 hPa 0,0 mm 0,0 km/h (0 Bft) W 270 0 min 1,7 C 0,0 km/h (0 Bft)
12.04.2016 02:55 4,0 C 3,4 C 87 % 1010,2 hPa 0,0 mm 0,0 km/h (0 Bft) SW 225 0 min 2,0 C 0,0 km/h (0 Bft)
12.04.2016 03:00 3,8 C 3,3 C 87 % 1010,2 hPa 0,0 mm 0,0 km/h (0 Bft) W 270 0 min 1,8 C 0,0 km/h (0 Bft)
12.04.2016 03:05 3,7 C 3,2 C 87 % 1010,2 hPa 0,0 mm 0,0 km/h (0 Bft) W-SW 247 0 min 1,6 C 0,0 km/h (0 Bft)
12.04.2016 03:10 3,7 C 3,2 C 87 % 1009,9 hPa 0,0 mm 0,0 km/h (0 Bft) W 270 0 min 1,6 C 0,0 km/h (0 Bft)
12.04.2016 03:15 3,3 C 2,9 C 87 % 1009,9 hPa 0,0 mm 0,0 km/h (0 Bft) W 270 0 min 1,3 C 0,0 km/h (0 Bft)
12.04.2016 03:20 3,4 C 3,0 C 87 % 1009,9 hPa 0,0 mm 0,0 km/h (0 Bft) W-SW 247 0 min 1,4 C 0,0 km/h (0 Bft)
12.04.2016 03:25 3,5 C 3,1 C 87 % 1009,9 hPa 0,0 mm 0,0 km/h (0 Bft) W 270 0 min 1,5 C 0,0 km/h (0 Bft)
12.04.2016 03:30 3,2 C 2,9 C 87 % 1010,1 hPa 0,0 mm 0,0 km/h (0 Bft) W 270 0 min 1,2 C 0,0 km/h (0 Bft)
12.04.2016 03:35 3,2 C 2,8 C 87 % 1010,1 hPa 0,0 mm 0,0 km/h (0 Bft) SO 135 0 min 1,2 C 0,0 km/h (0 Bft)
12.04.2016 03:40 3,0 C 2,7 C 87 % 1010,1 hPa 0,0 mm 0,0 km/h (0 Bft) N-NW 337 0 min 1,1 C 0,0 km/h (0 Bft)
12.04.2016 03:45 3,3 C 2,8 C 87 % 1010,1 hPa 0,0 mm 0,0 km/h (0 Bft) W-SW 247 0 min 1,3 C 0,0 km/h (0 Bft)
12.04.2016 03:50 3,5 C 3,0 C 87 % 1010,1 hPa 0,0 mm 0,0 km/h (0 Bft) W 270 0 min 1,5 C 0,0 km/h (0 Bft)
12.04.2016 03:55 3,6 C 3,1 C 87 % 1010,1 hPa 0,0 mm 0,0 km/h (0 Bft) S 180 0 min 1,6 C 0,0 km/h (0 Bft)
12.04.2016 04:00 4,2 C 3,7 C 87 % 1010,1 hPa 0,0 mm 0,0 km/h (0 Bft) W 270 0 min 2,2 C 0,0 km/h (0 Bft)
12.04.2016 04:05 3,9 C 3,6 C 88 % 1010,1 hPa 0,0 mm 0,9 km/h (0 Bft) W-NW 292 0 min 2,1 C 8,0 km/h (2 Bft)
12.04.2016 04:10 3,6 C 3,3 C 88 % 1010,1 hPa 0,0 mm 0,9 km/h (0 Bft) W-NW 292 0 min 1,7 C 0,0 km/h (0 Bft)
12.04.2016 04:15 4,4 C 4,1 C 88 % 1010,1 hPa 0,0 mm 3,0 km/h (1 Bft) W-SW 247 0 min 2,5 C 16,1 km/h (3 Bft)
12.04.2016 04:20 4,6 C 4,4 C 88 % 1010,1 hPa 0,0 mm 3,9 km/h (1 Bft) W-NW 292 0 min 2,8 C 0,0 km/h (0 Bft)
12.04.2016 04:23 4,1 C 4,2 C 88 % 1010,1 hPa 0,0 mm 2,1 km/h (1 Bft) S 180 0 min 2,2 C 3,6 km/h (1 Bft)
12.04.2016 04:24 4,1 C 4,2 C 88 % 1010,1 hPa 0,0 mm 2,1 km/h (1 Bft) S 180 0 min 2,2 C 3,6 km/h (1 Bft)
12.04.2016 04:30 3,6 C 4,1 C 88 % 1010,1 hPa 0,0 mm 1,5 km/h (1 Bft) SO 135 0 min 1,8 C 0,0 km/h (0 Bft)
12.04.2016 04:35 3,3 C 3,7 C 88 % 1010,1 hPa 0,0 mm 1,2 km/h (1 Bft) N-NO 22 0 min 1,5 C 0,0 km/h (0 Bft)
12.04.2016 04:40 3,4 C 3,6 C 88 % 1010,1 hPa 0,0 mm 0,3 km/h (0 Bft) O-SO 112 0 min 1,6 C 0,0 km/h (0 Bft)
12.04.2016 04:45 3,4 C 3,5 C 88 % 1010,1 hPa 0,0 mm 0,0 km/h (0 Bft) NO 45 0 min 1,7 C 0,0 km/h (0 Bft)
12.04.2016 04:50 3,6 C 3,6 C 88 % 1010,2 hPa 0,0 mm 0,0 km/h (0 Bft) O-NO 67 0 min 1,8 C 0,0 km/h (0 Bft)
12.04.2016 04:55 3,8 C 3,7 C 88 % 1010,2 hPa 0,0 mm 0,0 km/h (0 Bft) W-NW 292 0 min 2,0 C 0,0 km/h (0 Bft)
12.04.2016 05:00 4,1 C 3,9 C 88 % 1010,2 hPa 0,0 mm 0,0 km/h (0 Bft) O 90 0 min 2,2 C 0,0 km/h (0 Bft)
12.04.2016 05:05 4,1 C 3,9 C 88 % 1010,2 hPa 0,0 mm 0,0 km/h (0 Bft) O-SO 112 0 min 2,2 C 0,0 km/h (0 Bft)
12.04.2016 05:10 4,2 C 4,1 C 88 % 1010,2 hPa 0,0 mm 0,0 km/h (0 Bft) NO 45 0 min 2,4 C 0,0 km/h (0 Bft)
12.04.2016 05:15 4,3 C 4,1 C 88 % 1010,2 hPa 0,0 mm 0,0 km/h (0 Bft) W-SW 247 0 min 2,4 C 0,0 km/h (0 Bft)
12.04.2016 05:20 4,3 C 4,1 C 89 % 1010,2 hPa 0,0 mm 0,0 km/h (0 Bft) W-NW 292 0 min 2,5 C 0,0 km/h (0 Bft)
12.04.2016 05:25 4,3 C 4,1 C 88 % 1010,2 hPa 0,0 mm 0,0 km/h (0 Bft) N-NO 22 0 min 2,4 C 0,0 km/h (0 Bft)
12.04.2016 05:30 4,3 C 4,1 C 88 % 1010,2 hPa 0,0 mm 0,0 km/h (0 Bft) W-NW 292 0 min 2,4 C 0,0 km/h (0 Bft)
12.04.2016 05:35 4,4 C 4,2 C 89 % 1010,2 hPa 0,0 mm 0,0 km/h (0 Bft) O-SO 112 0 min 2,6 C 0,0 km/h (0 Bft)
12.04.2016 05:40 4,3 C 4,2 C 89 % 1010,2 hPa 0,0 mm 0,0 km/h (0 Bft) W-SW 247 0 min 2,6 C 0,0 km/h (0 Bft)
12.04.2016 05:45 4,3 C 4,2 C 89 % 1010,2 hPa 0,0 mm 0,0 km/h (0 Bft) W-NW 292 0 min 2,6 C 0,0 km/h (0 Bft)
12.04.2016 05:50 4,2 C 4,0 C 89 % 1010,1 hPa 0,0 mm 0,0 km/h (0 Bft) W-NW 292 0 min 2,5 C 0,0 km/h (0 Bft)
12.04.2016 05:55 4,2 C 4,0 C 89 % 1010,1 hPa 0,0 mm 0,0 km/h (0 Bft) W-NW 292 0 min 2,5 C 0,0 km/h (0 Bft)
12.04.2016 06:00 4,2 C 4,0 C 88 % 1010,1 hPa 0,0 mm 0,0 km/h (0 Bft) W 270 0 min 2,4 C 0,0 km/h (0 Bft)
12.04.2016 06:05 4,1 C 3,9 C 88 % 1010,1 hPa 0,0 mm 0,0 km/h (0 Bft) N 360 0 min 2,3 C 0,0 km/h (0 Bft)
12.04.2016 06:10 4,1 C 3,9 C 89 % 1010,0 hPa 0,0 mm 0,0 km/h (0 Bft) W 270 0 min 2,3 C 0,0 km/h (0 Bft)
12.04.2016 06:15 4,0 C 3,9 C 88 % 1010,0 hPa 0,0 mm 0,0 km/h (0 Bft) W-NW 292 0 min 2,2 C 0,0 km/h (0 Bft)
12.04.2016 06:20 4,0 C 3,9 C 88 % 1010,0 hPa 0,0 mm 0,0 km/h (0 Bft) W-NW 292 0 min 2,2 C 0,0 km/h (0 Bft)
12.04.2016 06:25 3,9 C 3,8 C 88 % 1010,0 hPa 0,0 mm 0,0 km/h (0 Bft) SW 225 0 min 2,1 C 0,0 km/h (0 Bft)
12.04.2016 06:30 4,3 C 4,2 C 89 % 1010,3 hPa 0,0 mm 0,0 km/h (0 Bft) S-SO 157 0 min 2,6 C 0,0 km/h (0 Bft)
12.04.2016 06:35 4,8 C 4,7 C 89 % 1010,3 hPa 0,0 mm 0,0 km/h (0 Bft) S-SO 157 0 min 3,1 C 0,0 km/h (0 Bft)
12.04.2016 06:40 4,6 C 4,4 C 89 % 1010,3 hPa 0,0 mm 0,0 km/h (0 Bft) O-NO 67 0 min 2,9 C 0,0 km/h (0 Bft)
12.04.2016 06:45 4,4 C 4,3 C 89 % 1010,3 hPa 0,0 mm 0,0 km/h (0 Bft) S-SO 157 0 min 2,6 C 0,0 km/h (0 Bft)
12.04.2016 06:50 4,7 C 4,6 C 89 % 1010,5 hPa 0,0 mm 0,3 km/h (0 Bft) W 270 0 min 3,0 C 3,3 km/h (1 Bft)
12.04.2016 06:55 5,3 C 5,2 C 89 % 1010,5 hPa 0,0 mm 2,7 km/h (1 Bft) S-SO 157 0 min 3,6 C 4,5 km/h (1 Bft)
12.04.2016 07:00 5,2 C 5,2 C 89 % 1010,5 hPa 0,0 mm 2,7 km/h (1 Bft) W-SW 247 0 min 3,5 C 0,0 km/h (0 Bft)
12.04.2016 07:05 4,8 C 4,9 C 90 % 1010,5 hPa 0,0 mm 0,6 km/h (0 Bft) O-NO 67 0 min 3,2 C 0,0 km/h (0 Bft)
12.04.2016 07:10 4,7 C 4,7 C 89 % 1010,4 hPa 0,0 mm 0,3 km/h (0 Bft) N-NW 337 0 min 3,0 C 0,0 km/h (0 Bft)
12.04.2016 07:15 4,8 C 4,7 C 89 % 1010,4 hPa 0,0 mm 0,0 km/h (0 Bft) NO 45 0 min 3,0 C 0,0 km/h (0 Bft)
12.04.2016 07:20 4,8 C 4,8 C 89 % 1010,4 hPa 0,0 mm 0,0 km/h (0 Bft) NW 315 0 min 3,1 C 0,0 km/h (0 Bft)
12.04.2016 07:23 4,9 C 5,0 C 89 % 1010,4 hPa 0,0 mm 1,5 km/h (1 Bft) W 270 0 min 3,2 C 0,0 km/h (0 Bft)
12.04.2016 07:25 4,9 C 5,0 C 89 % 1010,4 hPa 0,0 mm 1,5 km/h (1 Bft) W 270 0 min 3,2 C 0,0 km/h (0 Bft)
12.04.2016 07:30 5,2 C 5,3 C 89 % 1011,1 hPa 0,0 mm 2,7 km/h (1 Bft) SO 135 0 min 3,5 C 0,0 km/h (0 Bft)
12.04.2016 07:35 5,8 C 6,1 C 88 % 1011,1 hPa 0,0 mm 4,8 km/h (1 Bft) W 270 0 min 4,0 C 25,3 km/h (4 Bft)
12.04.2016 07:40 6,7 C 6,6 C 88 % 1011,1 hPa 0,0 mm 8,0 km/h (2 Bft) W 270 0 min 4,8 C 12,5 km/h (3 Bft)
12.04.2016 07:45 7,6 C 7,2 C 88 % 1011,1 hPa 0,0 mm 14,3 km/h (3 Bft) W-NW 292 0 min 5,7 C 31,6 km/h (5 Bft)
12.04.2016 07:50 7,9 C 7,4 C 87 % 1011,6 hPa 0,0 mm 14,3 km/h (3 Bft) NW 315 0 min 5,8 C 11,0 km/h (2 Bft)
12.04.2016 07:55 8,4 C 8,2 C 86 % 1011,6 hPa 0,0 mm 13,4 km/h (3 Bft) W-SW 247 0 min 6,1 C 36,1 km/h (5 Bft)
12.04.2016 08:00 8,2 C 8,0 C 84 % 1011,6 hPa 0,0 mm 14,9 km/h (3 Bft) W-NW 292 0 min 5,7 C 32,5 km/h (5 Bft)
12.04.2016 08:05 7,7 C 7,5 C 83 % 1011,6 hPa 0,0 mm 16,1 km/h (3 Bft) W 270 0 min 5,0 C 36,7 km/h (5 Bft)
12.04.2016 08:10 7,6 C 7,2 C 83 % 1012,1 hPa 0,0 mm 12,8 km/h (3 Bft) W-SW 247 0 min 4,9 C 12,5 km/h (3 Bft)
12.04.2016 08:15 7,4 C 7,2 C 84 % 1012,1 hPa 0,7 mm 10,7 km/h (2 Bft) W 270 0 min 4,8 C 6,0 km/h (2 Bft)
12.04.2016 08:20 7,3 C 6,9 C 84 % 1012,1 hPa 0,0 mm 9,2 km/h (2 Bft) W-SW 247 0 min 4,8 C 7,2 km/h (2 Bft)
12.04.2016 08:25 7,2 C 6,8 C 84 % 1012,1 hPa 0,0 mm 8,9 km/h (2 Bft) SW 225 0 min 4,7 C 13,4 km/h (3 Bft)
12.04.2016 08:30 7,1 C 6,6 C 85 % 1012,4 hPa 0,7 mm 10,7 km/h (2 Bft) W 270 0 min 4,7 C 24,4 km/h (4 Bft)
12.04.2016 08:35 7,3 C 6,8 C 85 % 1012,4 hPa 0,0 mm 11,3 km/h (2 Bft) W 270 0 min 4,9 C 13,1 km/h (3 Bft)
12.04.2016 08:40 7,4 C 6,9 C 85 % 1012,4 hPa 0,0 mm 10,7 km/h (2 Bft) W 270 0 min 5,0 C 11,3 km/h (2 Bft)
12.04.2016 08:45 7,6 C 7,1 C 85 % 1012,4 hPa 0,0 mm 10,4 km/h (2 Bft) W-SW 247 0 min 5,1 C 11,0 km/h (2 Bft)
12.04.2016 08:50 7,6 C 7,2 C 85 % 1012,9 hPa 0,0 mm 10,7 km/h (2 Bft) W-SW 247 0 min 5,2 C 16,1 km/h (3 Bft)
12.04.2016 08:55 7,7 C 7,2 C 85 % 1012,9 hPa 0,0 mm 11,6 km/h (2 Bft) W-SW 247 0 min 5,3 C 9,8 km/h (2 Bft)
12.04.2016 09:00 7,7 C 7,2 C 85 % 1012,9 hPa 0,0 mm 12,5 km/h (3 Bft) NW 315 0 min 5,3 C 11,3 km/h (2 Bft)
12.04.2016 09:05 7,6 C 7,1 C 85 % 1012,9 hPa 0,0 mm 11,3 km/h (2 Bft) W-SW 247 0 min 5,2 C 15,8 km/h (3 Bft)
12.04.2016 09:10 7,7 C 7,2 C 84 % 1013,5 hPa 0,0 mm 11,0 km/h (2 Bft) W 270 0 min 5,2 C 15,8 km/h (3 Bft)
12.04.2016 09:15 7,6 C 7,1 C 84 % 1013,5 hPa 0,0 mm 12,2 km/h (2 Bft) NW 315 0 min 5,0 C 16,1 km/h (3 Bft)
12.04.2016 09:20 7,6 C 7,0 C 84 % 1013,5 hPa 0,0 mm 12,8 km/h (3 Bft) W-NW 292 0 min 4,9 C 10,4 km/h (2 Bft)
12.04.2016 09:25 7,6 C 7,1 C 84 % 1013,5 hPa 0,0 mm 11,0 km/h (2 Bft) W 270 0 min 4,9 C 12,8 km/h (3 Bft)
12.04.2016 09:30 7,6 C 7,1 C 84 % 1013,8 hPa 0,0 mm 9,2 km/h (2 Bft) W 270 0 min 4,9 C 8,0 km/h (2 Bft)
12.04.2016 09:35 7,5 C 7,0 C 84 % 1013,8 hPa 0,0 mm 10,1 km/h (2 Bft) W 270 0 min 4,9 C 14,0 km/h (3 Bft)
12.04.2016 09:40 7,4 C 6,9 C 84 % 1013,8 hPa 0,0 mm 10,7 km/h (2 Bft) W 270 0 min 4,8 C 12,2 km/h (2 Bft)
12.04.2016 09:45 7,5 C 7,0 C 84 % 1013,8 hPa 0,0 mm 9,8 km/h (2 Bft) SW 225 0 min 4,9 C 11,0 km/h (2 Bft)
12.04.2016 09:50 7,6 C 7,1 C 84 % 1013,8 hPa 0,0 mm 9,2 km/h (2 Bft) W 270 0 min 5,0 C 13,4 km/h (3 Bft)
12.04.2016 09:55 7,6 C 7,2 C 84 % 1013,8 hPa 0,0 mm 9,2 km/h (2 Bft) W-SW 247 0 min 5,0 C 15,2 km/h (3 Bft)
12.04.2016 10:00 7,6 C 7,3 C 84 % 1013,8 hPa 0,0 mm 9,5 km/h (2 Bft) W-SW 247 0 min 5,0 C 5,7 km/h (1 Bft)
12.04.2016 10:05 7,6 C 7,5 C 84 % 1013,8 hPa 0,0 mm 6,6 km/h (2 Bft) W-SW 247 0 min 5,0 C 9,2 km/h (2 Bft)
12.04.2016 10:10 7,6 C 7,4 C 84 % 1014,0 hPa 0,0 mm 4,8 km/h (1 Bft) W 270 0 min 5,0 C 3,9 km/h (1 Bft)
12.04.2016 10:15 7,6 C 7,4 C 84 % 1014,0 hPa 0,0 mm 4,2 km/h (1 Bft) W 270 0 min 5,0 C 6,0 km/h (2 Bft)
12.04.2016 10:20 7,6 C 7,4 C 84 % 1014,0 hPa 0,0 mm 3,3 km/h (1 Bft) O-NO 67 0 min 5,0 C 0,0 km/h (0 Bft)
12.04.2016 10:23 7,6 C 7,5 C 84 % 1014,0 hPa 0,0 mm 3,3 km/h (1 Bft) W-SW 247 0 min 5,0 C 13,7 km/h (3 Bft)
12.04.2016 10:26 7,6 C 7,5 C 84 % 1014,0 hPa 0,0 mm 3,3 km/h (1 Bft) W-SW 247 0 min 5,0 C 13,7 km/h (3 Bft)
12.04.2016 10:30 7,7 C 7,6 C 84 % 1013,9 hPa 0,0 mm 3,9 km/h (1 Bft) W-NW 292 0 min 5,1 C 6,0 km/h (2 Bft)
12.04.2016 10:35 7,8 C 7,8 C 84 % 1013,9 hPa 0,0 mm 5,7 km/h (1 Bft) W-NW 292 0 min 5,2 C 6,0 km/h (2 Bft)
12.04.2016 10:40 8,0 C 7,9 C 83 % 1013,9 hPa 0,0 mm 5,7 km/h (1 Bft) W-SW 247 0 min 5,2 C 12,2 km/h (2 Bft)
12.04.2016 10:45 8,1 C 8,2 C 83 % 1013,9 hPa 0,0 mm 5,7 km/h (1 Bft) W-SW 247 0 min 5,4 C 11,3 km/h (2 Bft)
12.04.2016 10:50 8,3 C 8,4 C 83 % 1014,1 hPa 0,0 mm 6,0 km/h (2 Bft) W-SW 247 0 min 5,6 C 7,7 km/h (2 Bft)
12.04.2016 10:55 8,4 C 8,7 C 83 % 1014,1 hPa 0,0 mm 6,3 km/h (2 Bft) W 270 0 min 5,6 C 12,2 km/h (2 Bft)
12.04.2016 11:00 8,5 C 8,8 C 83 % 1014,1 hPa 0,0 mm 6,0 km/h (2 Bft) NW 315 0 min 5,7 C 5,4 km/h (1 Bft)
12.04.2016 11:05 8,6 C 9,2 C 82 % 1014,1 hPa 0,0 mm 6,0 km/h (2 Bft) W-SW 247 0 min 5,7 C 5,4 km/h (1 Bft)
12.04.2016 11:10 8,9 C 9,6 C 81 % 1014,1 hPa 0,0 mm 5,1 km/h (1 Bft) S 180 0 min 5,8 C 5,1 km/h (1 Bft)
12.04.2016 11:15 9,1 C 9,8 C 81 % 1014,1 hPa 0,0 mm 5,1 km/h (1 Bft) W-SW 247 0 min 6,0 C 5,1 km/h (1 Bft)
12.04.2016 11:20 9,4 C 10,3 C 81 % 1014,1 hPa 0,0 mm 5,7 km/h (1 Bft) W 270 0 min 6,3 C 6,3 km/h (2 Bft)
12.04.2016 11:25 9,8 C 11,0 C 80 % 1014,1 hPa 0,0 mm 5,1 km/h (1 Bft) W-SW 247 0 min 6,5 C 3,3 km/h (1 Bft)
12.04.2016 11:30 9,9 C 11,4 C 80 % 1014,1 hPa 0,0 mm 5,7 km/h (1 Bft) W-NW 292 0 min 6,6 C 7,2 km/h (2 Bft)
12.04.2016 11:35 10,1 C 11,6 C 79 % 1014,1 hPa 0,0 mm 5,4 km/h (1 Bft) W 270 0 min 6,6 C 7,5 km/h (2 Bft)
12.04.2016 11:40 10,0 C 11,9 C 79 % 1014,1 hPa 0,0 mm 5,4 km/h (1 Bft) S 180 0 min 6,5 C 7,5 km/h (2 Bft)
12.04.2016 11:45 9,9 C 11,9 C 78 % 1014,1 hPa 0,0 mm 5,4 km/h (1 Bft) W 270 0 min 6,3 C 5,4 km/h (1 Bft)
12.04.2016 11:50 10,4 C 12,2 C 78 % 1014,1 hPa 0,0 mm 5,1 km/h (1 Bft) SW 225 0 min 6,7 C 3,9 km/h (1 Bft)
12.04.2016 11:55 11,1 C 13,8 C 77 % 1014,1 hPa 0,0 mm 3,9 km/h (1 Bft) W-SW 247 0 min 7,2 C 0,0 km/h (0 Bft)
12.04.2016 12:00 11,0 C 14,0 C 76 % 1014,1 hPa 0,0 mm 3,9 km/h (1 Bft) W-SW 247 5 min 7,0 C 14,9 km/h (3 Bft)
12.04.2016 12:05 11,1 C 14,2 C 75 % 1014,1 hPa 0,0 mm 4,8 km/h (1 Bft) S 180 5 min 6,8 C 0,0 km/h (0 Bft)
12.04.2016 12:10 10,8 C 14,0 C 74 % 1014,5 hPa 0,0 mm 3,9 km/h (1 Bft) N-NO 22 5 min 6,3 C 0,0 km/h (0 Bft)
12.04.2016 12:15 11,3 C 13,8 C 74 % 1014,5 hPa 0,0 mm 3,3 km/h (1 Bft) S-SO 157 0 min 6,8 C 0,0 km/h (0 Bft)
12.04.2016 12:20 12,2 C 15,2 C 73 % 1014,5 hPa 0,0 mm 3,3 km/h (1 Bft) O-SO 112 0 min 7,5 C 3,3 km/h (1 Bft)
12.04.2016 12:25 12,4 C 17,3 C 71 % 1014,5 hPa 0,0 mm 2,7 km/h (1 Bft) N-NO 22 5 min 7,3 C 3,3 km/h (1 Bft)
12.04.2016 12:30 12,6 C 17,5 C 71 % 1014,6 hPa 0,0 mm 3,0 km/h (1 Bft) N-NW 337 5 min 7,5 C 11,3 km/h (2 Bft)
12.04.2016 12:35 12,9 C 18,2 C 70 % 1014,6 hPa 0,0 mm 4,5 km/h (1 Bft) NO 45 5 min 7,6 C 8,6 km/h (2 Bft)
12.04.2016 12:40 12,8 C 18,4 C 69 % 1014,6 hPa 0,0 mm 6,3 km/h (2 Bft) O-NO 67 5 min 7,3 C 8,9 km/h (2 Bft)
12.04.2016 12:45 11,5 C 16,4 C 68 % 1014,6 hPa 0,0 mm 6,6 km/h (2 Bft) NO 45 5 min 5,8 C 4,5 km/h (1 Bft)
12.04.2016 12:50 12,1 C 15,7 C 69 % 1014,8 hPa 0,0 mm 4,8 km/h (1 Bft) O-NO 67 5 min 6,6 C 4,8 km/h (1 Bft)
12.04.2016 12:55 13,1 C 17,1 C 67 % 1014,8 hPa 0,0 mm 3,9 km/h (1 Bft) O-SO 112 5 min 7,1 C 3,3 km/h (1 Bft)
12.04.2016 13:00 13,6 C 17,5 C 67 % 1014,8 hPa 0,0 mm 4,5 km/h (1 Bft) O-SO 112 5 min 7,6 C 8,3 km/h (2 Bft)
12.04.2016 13:05 13,2 C 17,2 C 65 % 1014,8 hPa 0,0 mm 4,8 km/h (1 Bft) O-NO 67 5 min 6,8 C 6,9 km/h (2 Bft)
12.04.2016 13:10 12,8 C 16,8 C 65 % 1014,7 hPa 0,0 mm 5,7 km/h (1 Bft) O-NO 67 5 min 6,3 C 5,7 km/h (1 Bft)
12.04.2016 13:15 12,4 C 16,0 C 64 % 1014,7 hPa 0,0 mm 3,3 km/h (1 Bft) SO 135 5 min 5,8 C 0,0 km/h (0 Bft)
12.04.2016 13:20 12,4 C 16,0 C 65 % 1014,7 hPa 0,0 mm 3,3 km/h (1 Bft) S 180 5 min 6,0 C 6,3 km/h (2 Bft)
12.04.2016 13:25 12,8 C 16,0 C 65 % 1014,7 hPa 0,0 mm 3,9 km/h (1 Bft) W-SW 247 5 min 6,4 C 3,3 km/h (1 Bft)
12.04.2016 13:27 12,8 C 16,0 C 65 % 1014,7 hPa 0,0 mm 3,9 km/h (1 Bft) W-SW 247 2 min 6,4 C 3,3 km/h (1 Bft)
12.04.2016 13:30 13,3 C 16,4 C 65 % 1014,4 hPa 0,0 mm 3,3 km/h (1 Bft) N 360 3 min 6,8 C 7,2 km/h (2 Bft)
12.04.2016 13:35 13,1 C 16,5 C 65 % 1014,4 hPa 0,0 mm 4,2 km/h (1 Bft) O-SO 112 5 min 6,7 C 10,4 km/h (2 Bft)
12.04.2016 13:40 13,6 C 16,9 C 65 % 1014,4 hPa 0,0 mm 5,4 km/h (1 Bft) N-NO 22 5 min 7,1 C 12,8 km/h (3 Bft)
12.04.2016 13:45 13,0 C 16,2 C 64 % 1014,4 hPa 0,0 mm 9,2 km/h (2 Bft) O 90 5 min 6,4 C 14,3 km/h (3 Bft)
12.04.2016 13:50 12,6 C 15,6 C 64 % 1014,1 hPa 0,0 mm 9,5 km/h (2 Bft) O-NO 67 5 min 5,9 C 3,6 km/h (1 Bft)
12.04.2016 13:55 12,4 C 14,7 C 65 % 1014,1 hPa 0,0 mm 6,0 km/h (2 Bft) O-NO 67 0 min 6,0 C 9,8 km/h (2 Bft)
12.04.2016 14:00 12,4 C 14,0 C 64 % 1014,1 hPa 0,0 mm 4,8 km/h (1 Bft) NW 315 0 min 5,8 C 0,0 km/h (0 Bft)
12.04.2016 14:05 12,3 C 14,0 C 64 % 1014,1 hPa 0,0 mm 6,6 km/h (2 Bft) O-NO 67 0 min 5,6 C 10,1 km/h (2 Bft)
12.04.2016 14:10 12,3 C 13,8 C 64 % 1013,8 hPa 0,0 mm 4,8 km/h (1 Bft) O-NO 67 0 min 5,6 C 3,0 km/h (1 Bft)
12.04.2016 14:15 14,0 C 15,4 C 64 % 1013,8 hPa 0,0 mm 5,4 km/h (1 Bft) O-NO 67 0 min 7,3 C 14,0 km/h (3 Bft)
12.04.2016 14:20 14,1 C 16,8 C 62 % 1013,8 hPa 0,0 mm 6,0 km/h (2 Bft) N 360 0 min 7,0 C 6,3 km/h (2 Bft)
12.04.2016 14:25 14,8 C 18,7 C 61 % 1013,8 hPa 0,0 mm 4,5 km/h (1 Bft) N-NO 22 5 min 7,3 C 3,6 km/h (1 Bft)
12.04.2016 14:30 15,2 C 19,8 C 61 % 1013,6 hPa 0,0 mm 2,7 km/h (1 Bft) NO 45 5 min 7,7 C 3,9 km/h (1 Bft)
12.04.2016 14:35 12,9 C 17,4 C 61 % 1013,6 hPa 0,0 mm 5,1 km/h (1 Bft) O-NO 67 5 min 5,6 C 6,6 km/h (2 Bft)
12.04.2016 14:40 12,8 C 16,0 C 62 % 1013,6 hPa 0,0 mm 5,7 km/h (1 Bft) SO 135 5 min 5,7 C 3,3 km/h (1 Bft)
12.04.2016 14:45 13,8 C 15,6 C 61 % 1013,6 hPa 0,0 mm 3,0 km/h (1 Bft) SW 225 0 min 6,4 C 6,6 km/h (2 Bft)
12.04.2016 14:50 15,1 C 17,0 C 60 % 1013,4 hPa 0,0 mm 2,7 km/h (1 Bft) N-NO 22 0 min 7,4 C 0,0 km/h (0 Bft)
12.04.2016 14:55 15,6 C 19,0 C 59 % 1013,4 hPa 0,0 mm 5,1 km/h (1 Bft) N-NO 22 5 min 7,7 C 6,6 km/h (2 Bft)
12.04.2016 15:00 15,6 C 19,7 C 59 % 1013,4 hPa 0,0 mm 6,3 km/h (2 Bft) N-NO 22 5 min 7,7 C 10,7 km/h (2 Bft)
12.04.2016 15:05 15,9 C 19,9 C 58 % 1013,4 hPa 0,0 mm 6,9 km/h (2 Bft) NW 315 5 min 7,6 C 8,3 km/h (2 Bft)
12.04.2016 15:10 16,0 C 20,4 C 58 % 1013,2 hPa 0,0 mm 6,3 km/h (2 Bft) N-NO 22 5 min 7,7 C 7,2 km/h (2 Bft)
12.04.2016 15:15 15,4 C 20,0 C 58 % 1013,2 hPa 0,0 mm 6,3 km/h (2 Bft) O-NO 67 5 min 7,2 C 7,2 km/h (2 Bft)
12.04.2016 15:20 15,4 C 19,5 C 58 % 1013,2 hPa 0,0 mm 7,7 km/h (2 Bft) N-NO 22 5 min 7,1 C 11,3 km/h (2 Bft)
12.04.2016 15:25 15,4 C 18,9 C 58 % 1013,2 hPa 0,0 mm 6,3 km/h (2 Bft) SO 135 5 min 7,2 C 0,0 km/h (0 Bft)
12.04.2016 15:30 15,9 C 19,3 C 58 % 1012,7 hPa 0,0 mm 5,4 km/h (1 Bft) NO 45 5 min 7,6 C 8,3 km/h (2 Bft)
12.04.2016 15:35 15,6 C 19,6 C 57 % 1012,7 hPa 0,0 mm 6,0 km/h (2 Bft) NO 45 5 min 7,1 C 11,3 km/h (2 Bft)
12.04.2016 15:40 15,6 C 19,7 C 57 % 1012,7 hPa 0,0 mm 6,6 km/h (2 Bft) S 180 5 min 7,2 C 5,4 km/h (1 Bft)
12.04.2016 15:45 15,6 C 19,8 C 56 % 1012,7 hPa 0,0 mm 7,5 km/h (2 Bft) O-NO 67 5 min 6,8 C 8,3 km/h (2 Bft)
12.04.2016 15:50 15,9 C 19,9 C 57 % 1012,3 hPa 0,0 mm 6,0 km/h (2 Bft) O-SO 112 5 min 7,3 C 10,7 km/h (2 Bft)
12.04.2016 15:55 15,8 C 20,0 C 56 % 1012,3 hPa 0,0 mm 6,9 km/h (2 Bft) O-SO 112 5 min 7,0 C 11,6 km/h (2 Bft)
12.04.2016 16:00 15,6 C 19,5 C 56 % 1012,3 hPa 0,0 mm 9,2 km/h (2 Bft) O-SO 112 5 min 6,9 C 8,3 km/h (2 Bft)
12.04.2016 16:05 15,6 C 19,4 C 56 % 1012,3 hPa 0,0 mm 9,8 km/h (2 Bft) N-NO 22 5 min 6,9 C 11,6 km/h (2 Bft)
12.04.2016 16:10 15,9 C 19,2 C 56 % 1012,2 hPa 0,0 mm 9,5 km/h (2 Bft) NO 45 5 min 7,1 C 13,1 km/h (3 Bft)
12.04.2016 16:15 15,5 C 19,0 C 56 % 1012,2 hPa 0,0 mm 9,2 km/h (2 Bft) O-NO 67 5 min 6,8 C 0,0 km/h (0 Bft)
12.04.2016 16:20 15,4 C 19,3 C 56 % 1012,2 hPa 0,0 mm 9,5 km/h (2 Bft) O-NO 67 5 min 6,7 C 16,7 km/h (3 Bft)
12.04.2016 16:25 15,5 C 18,9 C 56 % 1012,2 hPa 0,0 mm 9,8 km/h (2 Bft) O-NO 67 5 min 6,7 C 14,6 km/h (3 Bft)
12.04.2016 16:28 15,5 C 18,9 C 56 % 1012,2 hPa 0,0 mm 9,8 km/h (2 Bft) O-NO 67 3 min 6,7 C 14,6 km/h (3 Bft)
12.04.2016 16:30 15,3 C 18,8 C 56 % 1012,0 hPa 0,0 mm 11,9 km/h (2 Bft) O-NO 67 2 min 6,6 C 17,3 km/h (3 Bft)
12.04.2016 16:35 15,5 C 18,9 C 56 % 1012,0 hPa 0,0 mm 11,0 km/h (2 Bft) NO 45 5 min 6,7 C 20,3 km/h (4 Bft)
12.04.2016 16:40 15,1 C 18,6 C 55 % 1012,0 hPa 0,0 mm 11,3 km/h (2 Bft) O-NO 67 5 min 6,1 C 21,2 km/h (4 Bft)
12.04.2016 16:45 15,0 C 18,3 C 55 % 1012,0 hPa 0,0 mm 12,2 km/h (2 Bft) O 90 5 min 6,0 C 10,1 km/h (2 Bft)
12.04.2016 16:50 15,1 C 17,8 C 56 % 1011,6 hPa 0,0 mm 11,6 km/h (2 Bft) O-NO 67 5 min 6,3 C 16,1 km/h (3 Bft)
12.04.2016 16:55 15,0 C 16,9 C 55 % 1011,6 hPa 0,0 mm 9,5 km/h (2 Bft) O-SO 112 0 min 6,0 C 7,7 km/h (2 Bft)
12.04.2016 17:00 14,9 C 16,8 C 55 % 1011,6 hPa 0,0 mm 8,6 km/h (2 Bft) O-NO 67 0 min 6,0 C 11,9 km/h (2 Bft)
12.04.2016 17:05 14,9 C 16,9 C 55 % 1011,6 hPa 0,0 mm 9,5 km/h (2 Bft) O-NO 67 0 min 6,0 C 17,0 km/h (3 Bft)
12.04.2016 17:10 15,0 C 16,7 C 55 % 1011,4 hPa 0,0 mm 11,3 km/h (2 Bft) O-NO 67 0 min 6,0 C 19,1 km/h (3 Bft)
12.04.2016 17:15 14,9 C 16,4 C 55 % 1011,4 hPa 0,0 mm 12,2 km/h (2 Bft) NO 45 0 min 5,9 C 12,5 km/h (3 Bft)
12.04.2016 17:20 14,8 C 16,6 C 54 % 1011,4 hPa 0,0 mm 11,3 km/h (2 Bft) N 360 0 min 5,5 C 4,8 km/h (1 Bft)
12.04.2016 17:25 14,8 C 17,0 C 54 % 1011,4 hPa 0,0 mm 7,7 km/h (2 Bft) N-NO 22 0 min 5,5 C 6,9 km/h (2 Bft)
12.04.2016 17:30 14,8 C 16,8 C 54 % 1011,2 hPa 0,0 mm 6,9 km/h (2 Bft) N-NO 22 0 min 5,5 C 5,1 km/h (1 Bft)
12.04.2016 17:35 14,8 C 16,0 C 54 % 1011,2 hPa 0,0 mm 11,3 km/h (2 Bft) N-NO 22 0 min 5,5 C 19,4 km/h (3 Bft)
12.04.2016 17:40 14,7 C 15,7 C 54 % 1011,2 hPa 0,0 mm 13,7 km/h (3 Bft) N-NO 22 0 min 5,5 C 23,2 km/h (4 Bft)
12.04.2016 17:45 14,6 C 15,8 C 54 % 1011,2 hPa 0,0 mm 10,4 km/h (2 Bft) NO 45 0 min 5,4 C 10,7 km/h (2 Bft)
12.04.2016 17:50 14,5 C 15,7 C 54 % 1011,0 hPa 0,0 mm 10,4 km/h (2 Bft) O-NO 67 0 min 5,3 C 10,1 km/h (2 Bft)
12.04.2016 17:55 14,4 C 15,7 C 54 % 1011,0 hPa 0,0 mm 12,2 km/h (2 Bft) NO 45 0 min 5,2 C 11,0 km/h (2 Bft)
12.04.2016 18:00 14,4 C 15,6 C 54 % 1011,0 hPa 0,0 mm 11,9 km/h (2 Bft) NO 45 0 min 5,2 C 10,7 km/h (2 Bft)
12.04.2016 18:05 14,4 C 15,0 C 54 % 1011,0 hPa 0,0 mm 11,6 km/h (2 Bft) N 360 0 min 5,2 C 7,5 km/h (2 Bft)
12.04.2016 18:10 14,3 C 15,0 C 54 % 1010,9 hPa 0,0 mm 10,1 km/h (2 Bft) N-NO 22 0 min 5,1 C 20,3 km/h (4 Bft)
12.04.2016 18:15 14,1 C 15,2 C 54 % 1010,9 hPa 0,0 mm 9,8 km/h (2 Bft) O-NO 67 0 min 5,0 C 10,1 km/h (2 Bft)
12.04.2016 18:20 14,1 C 15,1 C 54 % 1010,9 hPa 0,0 mm 10,4 km/h (2 Bft) NO 45 0 min 5,0 C 12,2 km/h (2 Bft)
12.04.2016 18:25 14,1 C 15,1 C 54 % 1010,9 hPa 0,0 mm 10,1 km/h (2 Bft) O-NO 67 0 min 4,9 C 16,4 km/h (3 Bft)
12.04.2016 18:30 14,0 C 15,1 C 54 % 1010,9 hPa 0,0 mm 10,7 km/h (2 Bft) N-NO 22 0 min 4,8 C 4,8 km/h (1 Bft)
12.04.2016 18:35 13,9 C 15,2 C 54 % 1010,9 hPa 0,0 mm 9,8 km/h (2 Bft) N-NO 22 0 min 4,7 C 7,2 km/h (2 Bft)
12.04.2016 18:40 13,8 C 15,1 C 55 % 1010,9 hPa 0,0 mm 6,6 km/h (2 Bft) N-NO 22 0 min 4,9 C 6,6 km/h (2 Bft)
12.04.2016 18:45 13,8 C 14,5 C 55 % 1010,9 hPa 0,0 mm 5,4 km/h (1 Bft) O-NO 67 0 min 4,9 C 7,2 km/h (2 Bft)
12.04.2016 18:50 13,6 C 14,2 C 55 % 1010,6 hPa 0,0 mm 7,5 km/h (2 Bft) SO 135 0 min 4,8 C 23,2 km/h (4 Bft)
12.04.2016 18:55 13,6 C 14,2 C 55 % 1010,6 hPa 0,0 mm 7,5 km/h (2 Bft) O-SO 112 0 min 4,8 C 4,2 km/h (1 Bft)
12.04.2016 19:00 13,6 C 14,4 C 55 % 1010,6 hPa 0,0 mm 7,5 km/h (2 Bft) O-NO 67 0 min 4,7 C 11,6 km/h (2 Bft)
12.04.2016 19:05 13,6 C 14,1 C 55 % 1010,6 hPa 0,0 mm 6,3 km/h (2 Bft) NO 45 0 min 4,7 C 6,3 km/h (2 Bft)
12.04.2016 19:10 13,4 C 13,9 C 56 % 1010,4 hPa 0,0 mm 6,0 km/h (2 Bft) O-SO 112 0 min 4,8 C 0,0 km/h (0 Bft)
12.04.2016 19:15 13,2 C 13,8 C 56 % 1010,4 hPa 0,0 mm 4,5 km/h (1 Bft) N-NW 337 0 min 4,6 C 10,4 km/h (2 Bft)
12.04.2016 19:20 13,0 C 13,6 C 56 % 1010,4 hPa 0,0 mm 3,6 km/h (1 Bft) O-NO 67 0 min 4,4 C 6,3 km/h (2 Bft)
12.04.2016 19:25 12,8 C 13,4 C 57 % 1010,4 hPa 0,0 mm 2,1 km/h (1 Bft) SO 135 0 min 4,5 C 0,0 km/h (0 Bft)
12.04.2016 19:28 12,5 C 13,3 C 57 % 1010,1 hPa 0,0 mm 0,6 km/h (0 Bft) O-SO 112 0 min 4,3 C 0,0 km/h (0 Bft)
12.04.2016 19:29 12,5 C 13,3 C 57 % 1010,1 hPa 0,0 mm 0,6 km/h (0 Bft) O-SO 112 0 min 4,3 C 0,0 km/h (0 Bft)
12.04.2016 19:30 12,5 C 13,3 C 57 % 1010,1 hPa 0,0 mm 0,6 km/h (0 Bft) O-SO 112 0 min 4,3 C 0,0 km/h (0 Bft)
12.04.2016 19:35 12,3 C 13,2 C 58 % 1010,1 hPa 0,0 mm 0,0 km/h (0 Bft) SO 135 0 min 4,3 C 0,0 km/h (0 Bft)
12.04.2016 19:40 12,1 C 13,1 C 58 % 1010,1 hPa 0,0 mm 0,0 km/h (0 Bft) SO 135 0 min 4,1 C 0,0 km/h (0 Bft)
12.04.2016 19:45 11,7 C 12,6 C 58 % 1010,1 hPa 0,0 mm 0,6 km/h (0 Bft) O-SO 112 0 min 3,7 C 0,0 km/h (0 Bft)
12.04.2016 19:50 11,5 C 11,9 C 58 % 1010,0 hPa 0,0 mm 0,6 km/h (0 Bft) SO 135 0 min 3,5 C 0,0 km/h (0 Bft)
12.04.2016 19:55 11,1 C 11,0 C 59 % 1010,0 hPa 0,0 mm 0,3 km/h (0 Bft) S-SO 157 0 min 3,4 C 3,6 km/h (1 Bft)
12.04.2016 20:00 11,0 C 10,7 C 59 % 1010,0 hPa 0,0 mm 0,3 km/h (0 Bft) O 90 0 min 3,3 C 0,0 km/h (0 Bft)
12.04.2016 20:05 10,6 C 10,3 C 61 % 1010,0 hPa 0,0 mm 0,6 km/h (0 Bft) S-SO 157 0 min 3,4 C 0,0 km/h (0 Bft)
12.04.2016 20:10 10,5 C 10,2 C 61 % 1010,1 hPa 0,0 mm 0,3 km/h (0 Bft) S-SO 157 0 min 3,4 C 0,0 km/h (0 Bft)
12.04.2016 20:15 10,3 C 9,9 C 62 % 1010,1 hPa 0,0 mm 0,0 km/h (0 Bft) S-SO 157 0 min 3,3 C 0,0 km/h (0 Bft)
12.04.2016 20:20 10,0 C 9,6 C 62 % 1010,1 hPa 0,0 mm 0,0 km/h (0 Bft) S-SO 157 0 min 3,1 C 0,0 km/h (0 Bft)
12.04.2016 20:25 9,9 C 9,5 C 63 % 1010,1 hPa 0,0 mm 0,0 km/h (0 Bft) SO 135 0 min 3,2 C 0,0 km/h (0 Bft)
12.04.2016 20:30 9,1 C 8,7 C 63 % 1010,1 hPa 0,0 mm 0,0 km/h (0 Bft) O-SO 112 0 min 2,5 C 0,0 km/h (0 Bft)
12.04.2016 20:35 8,6 C 8,2 C 64 % 1010,1 hPa 0,0 mm 0,0 km/h (0 Bft) S-SO 157 0 min 2,2 C 0,0 km/h (0 Bft)
12.04.2016 20:40 8,5 C 7,9 C 64 % 1010,1 hPa 0,0 mm 0,0 km/h (0 Bft) S-SO 157 0 min 2,1 C 0,0 km/h (0 Bft)
12.04.2016 20:45 8,5 C 7,9 C 65 % 1010,1 hPa 0,0 mm 0,0 km/h (0 Bft) SO 135 0 min 2,3 C 0,0 km/h (0 Bft)
12.04.2016 20:50 8,2 C 7,7 C 66 % 1010,1 hPa 0,0 mm 0,0 km/h (0 Bft) O-SO 112 0 min 2,2 C 0,0 km/h (0 Bft)
12.04.2016 20:55 7,7 C 7,4 C 67 % 1010,1 hPa 0,0 mm 0,0 km/h (0 Bft) NO 45 0 min 1,9 C 0,0 km/h (0 Bft)
12.04.2016 21:00 7,5 C 7,2 C 69 % 1010,1 hPa 0,0 mm 0,0 km/h (0 Bft) O-NO 67 0 min 2,1 C 0,0 km/h (0 Bft)
12.04.2016 21:05 7,3 C 6,8 C 69 % 1010,1 hPa 0,0 mm 0,0 km/h (0 Bft) O-NO 67 0 min 1,8 C 0,0 km/h (0 Bft)
12.04.2016 21:10 7,1 C 6,7 C 69 % 1009,9 hPa 0,0 mm 0,0 km/h (0 Bft) O-SO 112 0 min 1,8 C 0,0 km/h (0 Bft)
12.04.2016 21:15 6,9 C 6,4 C 70 % 1009,9 hPa 0,0 mm 0,0 km/h (0 Bft) SO 135 0 min 1,8 C 0,0 km/h (0 Bft)
12.04.2016 21:20 6,7 C 6,2 C 70 % 1009,9 hPa 0,0 mm 0,0 km/h (0 Bft) O-NO 67 0 min 1,5 C 0,0 km/h (0 Bft)
12.04.2016 21:25 6,6 C 6,0 C 70 % 1009,9 hPa 0,0 mm 0,0 km/h (0 Bft) NO 45 0 min 1,5 C 0,0 km/h (0 Bft)
12.04.2016 21:30 6,3 C 5,7 C 70 % 1010,0 hPa 0,0 mm 0,0 km/h (0 Bft) O-NO 67 0 min 1,2 C 0,0 km/h (0 Bft)
12.04.2016 21:35 6,2 C 5,6 C 71 % 1010,0 hPa 0,0 mm 0,0 km/h (0 Bft) SO 135 0 min 1,2 C 0,0 km/h (0 Bft)
12.04.2016 21:40 6,4 C 6,0 C 74 % 1010,0 hPa 0,0 mm 0,0 km/h (0 Bft) NO 45 0 min 2,1 C 0,0 km/h (0 Bft)
12.04.2016 21:45 6,8 C 6,2 C 75 % 1010,0 hPa 0,0 mm 0,0 km/h (0 Bft) SO 135 0 min 2,6 C 0,0 km/h (0 Bft)
12.04.2016 21:50 6,9 C 6,4 C 75 % 1009,7 hPa 0,0 mm 0,3 km/h (0 Bft) S-SO 157 0 min 2,7 C 3,6 km/h (1 Bft)
12.04.2016 21:55 7,1 C 6,7 C 75 % 1009,7 hPa 0,0 mm 0,9 km/h (0 Bft) SO 135 0 min 3,0 C 0,0 km/h (0 Bft)
12.04.2016 22:00 6,8 C 6,3 C 74 % 1009,7 hPa 0,0 mm 0,6 km/h (0 Bft) N-NW 337 0 min 2,5 C 0,0 km/h (0 Bft)
12.04.2016 22:05 6,4 C 6,0 C 74 % 1009,7 hPa 0,0 mm 0,0 km/h (0 Bft) S-SO 157 0 min 2,2 C 0,0 km/h (0 Bft)
12.04.2016 22:10 6,2 C 5,7 C 75 % 1009,6 hPa 0,0 mm 0,0 km/h (0 Bft) O-SO 112 0 min 2,0 C 0,0 km/h (0 Bft)
12.04.2016 22:15 5,8 C 5,3 C 74 % 1009,6 hPa 0,0 mm 0,0 km/h (0 Bft) N-NO 22 0 min 1,5 C 0,0 km/h (0 Bft)
12.04.2016 22:20 5,6 C 5,0 C 75 % 1009,6 hPa 0,0 mm 0,0 km/h (0 Bft) N-NO 22 0 min 1,4 C 0,0 km/h (0 Bft)
12.04.2016 22:25 5,3 C 4,9 C 75 % 1009,6 hPa 0,0 mm 0,0 km/h (0 Bft) N-NO 22 0 min 1,3 C 0,0 km/h (0 Bft)
12.04.2016 22:28 5,3 C 4,7 C 76 % 1009,6 hPa 0,0 mm 0,0 km/h (0 Bft) N-NO 22 0 min 1,3 C 0,0 km/h (0 Bft)
12.04.2016 22:29 5,3 C 4,7 C 76 % 1009,6 hPa 0,0 mm 0,0 km/h (0 Bft) N-NO 22 0 min 1,3 C 0,0 km/h (0 Bft)
12.04.2016 22:35 5,2 C 4,6 C 76 % 1009,6 hPa 0,0 mm 0,0 km/h (0 Bft) W-SW 247 0 min 1,3 C 0,0 km/h (0 Bft)
12.04.2016 22:40 5,2 C 4,6 C 76 % 1009,6 hPa 0,0 mm 0,0 km/h (0 Bft) NW 315 0 min 1,3 C 0,0 km/h (0 Bft)
12.04.2016 22:45 5,1 C 4,4 C 77 % 1009,6 hPa 0,0 mm 0,0 km/h (0 Bft) N-NO 22 0 min 1,4 C 0,0 km/h (0 Bft)
12.04.2016 22:50 4,9 C 4,3 C 77 % 1009,4 hPa 0,0 mm 0,0 km/h (0 Bft) N-NO 22 0 min 1,2 C 0,0 km/h (0 Bft)
12.04.2016 22:55 4,8 C 4,3 C 77 % 1009,4 hPa 0,0 mm 0,0 km/h (0 Bft) N-NO 22 0 min 1,2 C 0,0 km/h (0 Bft)
12.04.2016 23:00 5,0 C 4,4 C 78 % 1009,4 hPa 0,0 mm 0,0 km/h (0 Bft) NO 45 0 min 1,5 C 0,0 km/h (0 Bft)
12.04.2016 23:05 5,4 C 4,8 C 79 % 1009,4 hPa 0,0 mm 0,0 km/h (0 Bft) O-SO 112 0 min 2,0 C 0,0 km/h (0 Bft)
12.04.2016 23:10 5,6 C 4,9 C 79 % 1009,6 hPa 0,0 mm 0,0 km/h (0 Bft) O 90 0 min 2,2 C 0,0 km/h (0 Bft)
12.04.2016 23:15 5,2 C 4,5 C 79 % 1009,6 hPa 0,0 mm 0,0 km/h (0 Bft) N-NO 22 0 min 1,8 C 0,0 km/h (0 Bft)
12.04.2016 23:20 5,2 C 4,4 C 79 % 1009,6 hPa 0,0 mm 0,0 km/h (0 Bft) N 360 0 min 1,8 C 0,0 km/h (0 Bft)
12.04.2016 23:25 4,8 C 4,2 C 79 % 1009,6 hPa 0,0 mm 0,0 km/h (0 Bft) NW 315 0 min 1,4 C 0,0 km/h (0 Bft)
12.04.2016 23:30 4,8 C 4,1 C 79 % 1009,5 hPa 0,0 mm 0,0 km/h (0 Bft) O-NO 67 0 min 1,3 C 0,0 km/h (0 Bft)
12.04.2016 23:35 5,3 C 4,6 C 80 % 1009,5 hPa 0,0 mm 0,0 km/h (0 Bft) O-NO 67 0 min 2,1 C 0,0 km/h (0 Bft)
12.04.2016 23:40 5,3 C 4,6 C 80 % 1009,5 hPa 0,0 mm 0,0 km/h (0 Bft) N-NO 22 0 min 2,2 C 0,0 km/h (0 Bft)
12.04.2016 23:45 5,1 C 4,4 C 80 % 1009,5 hPa 0,0 mm 0,0 km/h (0 Bft) N-NW 337 0 min 1,9 C 0,0 km/h (0 Bft)
12.04.2016 23:50 4,8 C 4,2 C 80 % 1009,6 hPa 0,0 mm 0,0 km/h (0 Bft) O-SO 112 0 min 1,6 C 0,0 km/h (0 Bft)
12.04.2016 23:55 4,8 C 4,3 C 80 % 1009,6 hPa 0,0 mm 0,0 km/h (0 Bft) O-NO 67 0 min 1,7 C 0,0 km/h (0 Bft)
_ Min-Zeit 03:40 03:40 18:35 23:05 - 23:55 - - - 03:40 23:55
Minimum _ 3,0 C 2,7 C 54 % 1009,4 hPa - 0,0 km/h (0 Bft) - - - 1,1 C 0,0 km/h (0 Bft)
_ Max-Zeit 15:10 15:10 07:05 13:05 08:30 08:05 - - 16:50 15:10 08:05
Maximum _ 16,0 C 20,4 C 90 % 1014,8 hPa 0,7 mm 16,1 km/h
W (3 Bft)
- - 5 min 7,7 C 36,7 km/h
W (5 Bft)
Durchschnitt _ 8,6 C 9,3 C 75 % 1011,5 hPa #1,4 mm 3,9 km/h (1 Bft) O-NO - #4:05 h 4,0 C 5,0 km/h (1 Bft)